Tracking 17886 objects as of 9-December-2016
HD Live streaming from Space Station
objects crossing your sky now

GORIZONT 30

Track GORIZONT 30 now!
GORIZONT 30 is classified as:


NORAD ID: 23108
Int'l Code: 1994-030A
Perigee: 35,794.3 km
Apogee: 35,855.9 km
Inclination: 14.6 °
Period: 1,437.7 minutes
Semi major axis: 42196 km
RCS: 12.5892 m2 (large)
Launch date: May 20, 1994
Source: Commonwealth of Independent States (former USSR) (CIS)
Launch site: TYURATAM MISSILE AND SPACE COMPLEX (TTMTR)
Your satellite tracking list
Your tracking list is empty





NASA's NSSDC Master Catalog

Two Line Element Set (TLE):
1 23108U 94030A   16343.14077262 -.00000021  00000-0  00000+0 0  9999
2 23108  14.5864  18.5522 0007298 215.7485 137.0593  1.00160418 82611
Source of the keplerian elements: AFSPC